#timestamp,LO_Frequency,Hit 
1501783215.9,286046991.5,N
1501783235.7,286047001.5,N
1501783255.6,286047005.6,N
1501783275.4,286047010.4,N
1501783295.2,286047011.8,N
1501783315.0,286047013.3,N
1501783316.0,286047013.3,N
1501783335.8,286047009.8,N
1501783355.6,286047009.9,N
1501783375.4,286047008.2,N
1501783395.3,286047003.6,N
1501783415.1,286046999.3,N
1501783435.8,286047001.1,N
1501783455.7,286046997.0,N
1501783475.5,286047001.0,N
1501783495.3,286047004.4,N
1501783515.2,286046999.9,N
1501783535.9,286046993.3,N
1501783555.7,286046992.0,N
1501783575.6,286046992.1,N
1501783595.4,286046995.5,N
1501783615.2,286046993.0,N
1501783635.0,286046987.2,N
1501783635.9,286046987.2,N
1501783655.8,286046983.0,N
1501783675.6,286046978.4,N
1501783695.4,286046973.3,N
1501783715.3,286046969.8,N
1501783735.1,286046969.3,N
1501783755.8,286046970.9,N
1501783775.7,286046969.9,N
1501783795.5,286046968.0,N
1501783815.3,286046969.5,N
1501783835.2,286046970.6,N
1501783855.9,286046970.6,N
1501783875.7,286046966.9,N
1501783895.5,286046961.5,N
1501783915.4,286046958.1,N
1501783935.2,286046959.5,N
1501783955.0,286046958.0,N
1501783955.9,286046958.0,N
1501783975.8,286046958.9,N
1501783995.6,286046959.5,N
1501784015.4,286046961.0,N
1501784035.3,286046962.1,N
1501784055.1,286046959.8,N
1501784056.0,286046959.8,N
1501784075.8,286046958.5,N
1501784095.7,286046959.1,N
1501784115.5,286046959.0,N
1501784135.3,286046959.6,N
1501784155.2,286046957.3,N
1501784175.9,286046956.7,N
1501784195.7,286046954.9,N
1501784215.5,286046957.6,N
1501784235.4,286046955.3,N
1501784255.2,286046955.4,N
1501784275.0,286046955.5,N
1501784275.9,286046955.5,N
1501784295.8,286046956.3,N
1501784315.6,286046953.5,N
1501784335.4,286046953.1,N
1501784355.3,286046950.6,N
1501784375.1,286046950.7,N
1501784376.0,286046950.7,N
1501784395.8,286046950.3,N
1501784415.7,286046949.9,N
1501784435.5,286046949.5,N
1501784455.3,286046947.3,N
1501784475.2,286046947.1,N
1501784495.9,286046945.3,N
1501784515.7,286046946.5,N
1501784535.5,286046945.7,N
1501784555.4,286046946.0,N
1501784575.2,286046944.2,N
1501784595.0,286046946.5,N
1501784595.9,286046946.5,N
1501784615.8,286046945.6,N
1501784635.6,286046945.5,N
1501784655.4,286046946.1,N
1501784675.3,286046946.0,N
1501784695.1,286046943.8,N
1501784696.0,286046943.8,N
1501784715.8,286046942.3,N
1501784735.7,286046942.8,N
1501784755.5,286046943.5,N
1501784775.3,286046941.1,N
1501784795.2,286046940.4,N
1501784815.9,286046940.1,N
1501784835.7,286046939.4,N
1501784855.5,286046939.0,N
1501784875.4,286046940.0,N
1501784895.2,286046939.6,N
1501784915.0,286046939.1,N
1501784915.9,286046939.1,N
1501784935.8,286046939.8,N
1501784955.6,286046937.7,N
1501784975.4,286046938.2,N
1501784995.3,286046935.7,N
1501785015.1,286046938.5,N
1501785016.0,286046938.5,N
1501785035.8,286046937.6,N
1501785055.7,286046937.6,N
1501785075.5,286046937.9,N
1501785095.3,286046938.4,N
1501785115.1,286046938.3,N
1501785135.9,286046938.7,N
1501785155.7,286046936.1,N
1501785175.5,286046936.8,N
1501785195.4,286046937.1,N
1501785215.2,286046934.2,N
1501785235.0,286046937.1,N
1501785235.9,286046937.1,N
1501785255.8,286046934.8,N
1501785275.6,286046935.4,N
1501785295.4,286046934.6,N
1501785315.3,286046937.0,N
1501785335.1,286046937.2,N
1501785336.0,286046937.2,N
1501785355.8,286046934.1,N
1501785375.7,286046934.9,N
1501785395.5,286046932.5,N
1501785415.3,286046932.8,N
1501785435.1,286046932.6,N
1501785455.9,286046932.8,N
1501785475.7,286046933.5,N
1501785495.5,286046933.8,N
1501785515.4,286046933.4,N
1501785535.2,286046931.4,N
1501785555.0,286046930.9,N
1501785555.9,286046930.9,N
1501785575.8,286046931.3,N
1501785595.6,286046931.3,N
1501785615.4,286046929.8,N
1501785635.3,286046929.8,N
1501785655.1,286046929.8,N
1501785656.0,286046929.8,N
1501785675.8,286046929.7,N
1501785695.6,286046930.2,N
1501785715.5,286046929.6,N
1501785735.3,286046929.5,N
1501785755.1,286046932.4,N
1501785775.9,286046930.1,N
1501785795.7,286046930.5,N
1501785815.5,286046930.4,N
1501785835.4,286046927.9,N
1501785855.2,286046928.8,N
1501785875.0,286046928.6,N
1501785875.9,286046928.6,N
1501785895.8,286046926.1,N
1501785915.6,286046926.7,N
1501785935.4,286046929.2,N
1501785955.2,286046927.0,N
1501785975.1,286046927.4,N
1501785976.0,286046927.4,N
1501785995.8,286046927.1,N
1501786015.6,286046926.7,N
1501786035.5,286046926.8,N
1501786055.3,286046926.4,N
1501786075.1,286046927.0,N
1501786095.9,286046926.8,N
1501786115.7,286046926.3,N
1501786135.5,286046926.8,N
1501786155.4,286046926.9,N
1501786175.2,286046928.7,N
1501786195.0,286046926.9,N
1501786195.9,286046926.9,N
1501786215.7,286046927.0,N
1501786235.6,286046926.9,N
1501786255.4,286046926.8,N
1501786275.2,286046926.5,N
1501786295.1,286046926.3,N
1501786296.0,286046926.3,N
1501786315.8,286046927.3,N
1501786335.7,286046926.6,N
1501786355.5,286046926.5,N
1501786375.4,286046929.1,N
1501786395.2,286046926.8,N
1501786415.0,286046927.0,N
1501786415.9,286046927.0,N
1501786435.8,286046927.3,N
1501786455.6,286046927.5,N
1501786475.4,286046925.2,N
1501786495.3,286046924.6,N
1501786515.1,286046925.5,N
1501786516.0,286046925.5,N
1501786535.8,286046925.2,N
1501786555.7,286046923.3,N
1501786575.5,286046923.0,N
1501786595.3,286046925.4,N
1501786615.1,286046924.3,N
1501786635.9,286046921.4,N
1501786655.7,286046923.5,N
1501786675.5,286046925.3,N
1501786695.4,286046926.0,N
1501786715.2,286046923.8,N
1501786735.0,286046923.5,N
1501786735.9,286046923.5,N
1501786755.8,286046925.5,N
1501786775.6,286046925.8,N
1501786795.4,286046925.5,N
